Ana Sayfa
METAR-TAF:

METAR-TAF

Havaalanları :

Campo, Kaliforniya, Amerika Birleşik Devletleri

Enlem: 32-37-34N, Boylam: 116-28-06W, yükseklik: 807 m

Güncel hava durumu gözlemi

Rapor saat 00:52 UTC de 51 dakika önce yapıldı.
Rüzgar güneybatıdan 5 kt
Sıcaklık 10°C
Nem 50%
Basınç 1019 hPa

METAR: KCZZ 220052Z AUTO 23005KT 10/00 A3008 RMK AO1 SLP174 T01000000

Saat: 17:43 (01:43 UTC)


TAF: eksik

4.000'den fazla havaalanı için hava durumu gözlemleri ve tahminleri (METAR ve TAF raporları).

Kullanılabilir istasyonlar harita üzerinde sarı ve kırmızı noktalarla gösterilir.

İstasyonun adını görmek için fareyi noktanın üzerinde gezdirin.

Sonrasında hava gözlem ve tahminlerini görmek için tıklayın.

Haritayı değiştirmek için: yaklaştırmak için siyah artı işaretli yeşil düğmeye ve uzaklaştırmak için de eksi işaretli düğmeye hızla tıklayın; bitişik haritalar için yeşil okları kullanın.


METAR-TAF: